This is the latest recevied weather packets stored in our database for station/object KB1ZFK. If no packets are shown the sender has not sent any weather packets the latest 10 day(s).
| Time | Temp. | Humidity | Pressure | Rain* | Wind** | Luminosity | Snow |
|---|---|---|---|---|---|---|---|
| 1778084214 | 20° C | 72% | 1007.1 hPa | 0 mm | - | 92 W/m² | - |
| 1778083910 | 20° C | 72% | 1007.5 hPa | 0 mm | - | 91 W/m² | - |
| 1778083608 | 20° C | 71% | 1007.2 hPa | 0 mm | - | 106 W/m² | - |
| 1778083305 | 20° C | 71% | 1007.4 hPa | 0 mm | - | 105 W/m² | - |
| 1778083004 | 20° C | 71% | 1007.5 hPa | 0 mm | - | 120 W/m² | - |
| 1778082700 | 19.44° C | 72% | 1008 hPa | 0 mm | - | 84 W/m² | - |
| 1778081562 | 19.44° C | 73% | 1007.7 hPa | 0 mm | - | 108 W/m² | - |
| 1778081259 | 19.44° C | 72% | 1008.1 hPa | 0 mm | - | 95 W/m² | - |
| 1778080957 | 19.44° C | 72% | 1008.1 hPa | 0 mm | - | 108 W/m² | - |
| 1778080656 | 19.44° C | 73% | 1008.3 hPa | 0 mm | - | 108 W/m² | - |
| 1778080352 | 20° C | 72% | 1008.3 hPa | 0 mm | - | 29 W/m² | - |
| 1778080048 | 20° C | 71% | 1008.2 hPa | 0 mm | - | 60 W/m² | - |
| 1778079746 | 20° C | 70% | 1008.4 hPa | 0 mm | - | 152 W/m² | - |
| 1778079443 | 20° C | 70% | 1008.2 hPa | 0 mm | - | 161 W/m² | - |
| 1778079139 | 20° C | 71% | 1008 hPa | 0 mm | - | 169 W/m² | - |
| 1778078836 | 19.44° C | 73% | 1008 hPa | 0 mm | - | 136 W/m² | - |
| 1778078533 | 19.44° C | 73% | 1008.3 hPa | 0 mm | - | 99 W/m² | - |
| 1778078231 | 20° C | 73% | 1008 hPa | 0 mm | - | 161 W/m² | - |
| 1778077928 | 20° C | 72% | 1008.2 hPa | 0 mm | - | 222 W/m² | - |
| 1778077627 | 20° C | 72% | 1008 hPa | 0 mm | - | 272 W/m² | - |
| 1778077324 | 19.44° C | 73% | 1008.1 hPa | 0 mm | - | 388 W/m² | - |
| 1778077022 | 19.44° C | 74% | 1007.8 hPa | 0 mm | - | 489 W/m² | - |
| 1778076720 | 18.89° C | 75% | 1008.1 hPa | 0 mm | - | 436 W/m² | - |
| 1778076417 | 18.89° C | 76% | 1008 hPa | 0 mm | - | 278 W/m² | - |
| 1778076114 | 18.33° C | 77% | 1008 hPa | 0 mm | - | 274 W/m² | - |
* Rain latest hour (hover to see other rain measurements)
** Current wind speed in m/s (hover to see current wind gust speed)